Current Version              Previous Version:    01  02  03  04  05  06  07  08  09  10  11  12  13  14  15  16  17  18  19  20  21  22  23  24  25  26  27  28  29  30  
   31  32  33  34  35  36  37  38  39  40  41  42  43  44  45  46  47  48  49  50  51  52  53  54  55  56  57  58  59  60  

[Printable]
761
ASUS44 KEWX 252210
RWRTX
SOUTH TEXAS REGIONAL WEATHER ROUNDUP
NATIONAL WEATHER SERVICE AUSTIN/SAN ANTONIO TX
500 PM CDT FRI JUL 25 2014

NOTE: "FAIR" INDICATED FEW OR NO CLOUDS BELOW 12,000 FEET WITH NO
SIGNIFICANT WEATHER AND/OR OBSTRUCTIONS TO VISIBILITY.

* - THESE STATIONS ARE NOT NWS OR FAA STATIONS...AND ARE NOT SUBJECT
    TO NWS AND FAA QUALITY CONTROL.

TXZ171-172-183>190-252300-
TEXAS HILL COUNTRY AND EDWARDS PLATEAU

CITY           SKY/WX    TMP DP  RH WIND       PRES   REMARKS
JUNCTION       MOSUNNY   94  62  34 SE8       29.96F HX  94
*LLANO         SUNNY     99  64  32 SE9       29.97F HX 101
BURNET         MOSUNNY   94  64  37 E7        29.99F HX  95
*HORSESHOE BAY PTSUNNY   97  61  30 SE5G17    29.95F HX  97
*KERRVILLE     MOSUNNY   94  66  39 SE8       29.99F HX  96
*FREDERICKSBRG SUNNY     93  60  32 SE7       29.98F HX  93
*ROCKSPRINGS   MOSUNNY   88  64  45 S6        30.03F
*BOERNE STAGE  SUNNY     91  59  33 S3        29.99F HX  90
*CASTROVILLE   MOSUNNY   97  62  31 CALM      29.95F HX  98
HONDO          MOSUNNY   95  67  39 SE10      29.95F HX  99
*UVALDE        SUNNY     96  67  38 E8        29.93F HX  99
DEL RIO        MOSUNNY  100  64  30 SE13      29.89F HX 102
LAUGHLIN AFB   MOSUNNY   98  64  33 SE10G18   29.90F HX 100
CARRIZO SPRGS  PTSUNNY   97  68  38 S8        29.88F HX 101
$$

TXZ173-191>194-202-209-217>225-228-252300-
CENTRAL AND SOUTH CENTRAL TEXAS

CITY           SKY/WX    TMP DP  RH WIND       PRES   REMARKS
GEORGETOWN     MOSUNNY   93  68  43 VRB6      29.94F HX  97
AUSTIN/BERGSTM MOSUNNY   95  66  38 S7        29.93F HX  98
AUSTIN/MABRY   MOSUNNY   93  68  43 SE8       29.95F HX  97
*AUSTIN/EXEC   PTSUNNY   95  68  41 SE5       29.95F HX  99
*LAGO VISTA    SUNNY     94  64  36 SE8       29.98F HX  95
SAN MARCOS     SUNNY     95  63  34 S7        29.94F HX  96
NEW BRAUNFELS  MOSUNNY   97  64  33 SE8       29.93F HX  99
RANDOLPH AFB   MOSUNNY   95  64  35 SW10      29.95F HX  97
PT SAN ANTONIO SUNNY     94  65  38 S5        29.94S HX  97
SAN ANTONIO    MOSUNNY   94  67  41 E7        29.95F HX  97
STINSON FIELD  SUNNY     95  64  35 VRB6      29.92F HX  97
*PLEASANTON    MOSUNNY   97  63  33 NE6       29.92F HX  98
*LA GRANGE     SUNNY     96  71  44 SE5       29.92F HX 103
*GIDDINGS      SUNNY     93  68  43 CALM      29.98F HX  97
*GONZALES      MOSUNNY  100  66  33 SE8       29.92S HX 104
$$

TXZ163>164-176>182-195>201-210>213-226-227-235-252300-
SOUTHEAST TEXAS

CITY           SKY/WX    TMP DP  RH WIND       PRES   REMARKS
COLLEGE STN    MOSUNNY   92  70  48 S7        29.95F HX  97
*BRYAN         MOSUNNY  N/A N/A N/A E3        29.95S
*CALDWELL      SUNNY     93  66  40 CALM      29.97F HX  96
*CROCKETT        N/A     93  75  55 CALM      29.99F HX 104
*BRENHAM       SUNNY     93  69  44 SE7       29.95F HX  98
HUNTSVILLE     SUNNY     94  68  42 MISG      29.97F HX  98
CONROE         SUNNY     92  70  48 SW3       29.96F HX  97
HOUSTON BUSH   MOSUNNY   94  67  41 SW7       29.94F HX  97
HOUSTON HOBBY  MOSUNNY   92  70  48 S10       29.95F HX  97
*HOUSTON SW AP PTSUNNY   94  69  44 S8        29.96S HX  99
PEARLAND       PTSUNNY   91  74  57 S8        29.97F HX 100
HOUSTON HOOKS  MOSUNNY   92  71  50 CALM      29.95F HX  98
ELLINGTON FLD  MOSUNNY   88  72  58 SE12      29.97F HX  94
SUGAR LAND     MOSUNNY   93  72  50 SE7       29.95F HX 101
*HOUSTON EXEC  SUNNY     93  70  46 S6        29.96F HX  99
*CLEVELAND MUN MOSUNNY   92  78  62 CALM      29.97F HX 107
*WHARTON       SUNNY     91  72  53 SE16      29.96S HX  99
$$

TXZ214>216-236>238-252300-
THE UPPER TEXAS COAST

CITY           SKY/WX    TMP DP  RH WIND       PRES   REMARKS
*ORANGE        PTSUNNY   89  73  60 S10       29.97F HX  97
PORT ARTHUR    MOSUNNY   87  76  69 S10       29.96F HX  97
GALVESTON      SUNNY     89  75  63 S12       29.98F HX  99
ANGLETON       SUNNY     90  75  61 S14       29.97F HX 100
*BAY CITY      SUNNY     92  74  55 S10G16    29.96F HX 100
PALACIOS       SUNNY     91  74  57 S18       29.97S HX 100
$$

TXZ229>234-239>247-252300-
TEXAS COASTAL BEND AND RIO GRANDE PLAINS

CITY           SKY/WX    TMP DP  RH WIND       PRES   REMARKS
VICTORIA       MOSUNNY   93  74  53 S14       29.95S HX 103
*BEEVILLE      SUNNY     88  73  61 SE16G23   29.94F HX  96
ROCKPORT       PTSUNNY   90  75  61 SE15G25   29.95F HX 100
*PORT ARANSAS  SUNNY     87  77  72 SE10      29.96F HX 100
*PORT LAVACA   SUNNY     91  73  55 SE16G23   29.96R HX  98
*INGLESIDE     PTSUNNY   92  74  56 S16G23    29.96S HX 101
CORPUS CHRISTI LGT RAIN  78  72  81 SE8       29.95F
CORPUS NAS     MOSUNNY   85  68  56 SE7       29.96F
*ROBSTOWN      NOT AVBL
ALICE          CLOUDY    84  71  65 SE10      29.93S
KINGSVILLE NAS PTSUNNY   83  70  64 E12       29.95S
COTULLA        SUNNY    100  63  29 CALM      29.89F HX 102
*FAITH RANCH   SUNNY     99  64  32 S9        29.91F HX 101
LAREDO         PTSUNNY   88  74  63 NE10      29.93F HX  96
$$

TXZ248>255-252300-
DEEP SOUTH TEXAS

CITY           SKY/WX    TMP DP  RH WIND       PRES   REMARKS
BROWNSVILLE    SUNNY     94  70  45 S22G28    29.95S HX 100
PORT ISABEL    MOSUNNY   94  72  48 SE17G28   29.95R HAZE    HX 102
*SOUTH PADRE   SUNNY     90  79  70 SE8       29.96S HX 105
HARLINGEN      SUNNY     97  65  34 SE18G26   29.92S HX  99
*HEBBRONVILLE  MOSUNNY   99  57  24 SE12G20   29.91S HX  98
MCALLEN        SUNNY    100  71  39 SE22      29.90F HX 108
*WESLACO       SUNNY     98  62  30 SE18G24   29.91S HX  99
FALFURRIAS     CLOUDY    92  67  42 E16G25    29.89F HX  95
EDINBURG       MOSUNNY  101  62  27 SE16      29.90S HX 102
*ZAPATA        MOSUNNY  105  53  18 S16       29.85F HX 103
$$

TXZ213>215-236>238-242>244-246-247-251-254-255-252300-
CMAN STATIONS

STATION/POSITION TIME  TEMP    WIND        PRES    WAVE
                       AIR SEA DIR/SP/G            HT/PER
                 (UTC) (F)     (DEG/KT/KT) (MB)    (FT/S)
SABINE PASS      2200   88 88  220/  6/ 12 1015.0
SEA RIM ST PARK  2200   86     210/ 11/ 13 1015.4
NORTH JETTY/GLS  2200   86 93  200/  8/ 11   N/A
EAGLE POINT      2200   87 91  180/  9/ 11 1015.1
MORGANS POINT    2200   89 91  160/  9/ 12 1014.7
MISSION/ARANSAS  2100   85     150/ 17     1016.0
PORT O`CONNOR    2200          160/ 13/ 18   N/A
PORT ARANSAS     2200   84 87  140/ 13/ 14 1015.4
MALAQUITE BEACH  2200   83 84  140/ 14/ 16 1013.9
BAFFIN BAY       2200   85 91  130/ 16/ 22 1014.2
PORT ISABEL      2200   86 82  130/ 12/ 18 1014.9
$$

GMZ080-GMZ150>470-252300-
OFFSHORE BUOY REPORTS

STATION/POSITION TIME  TEMP    WIND        PRES    WAVE
                       AIR SEA DIR/SP/G            HT/PER
                 (UTC) (F)     (DEG/KT/KT) (MB)    (FT/S)
20 E GALVESTON   2100   85 89  190/  4/  6 1015.6    1/ 4
90 E PT ARANSAS  2200   84 85  160/  8/  8 1015.7    2/ 4
35 NE PT MANSFLD 2200   84 83  160/ 12/ 16 1014.7    2/ 4
200 E PT ISABEL  2200   85 86  180/  6/  8 1016.4    1/ 9
$$